DELTA 1 DEB, 42083

Orbit data source: Space-Track

DELTA 1 DEB, 42083 is space debris in SSO originally from a launch on Sun, 15 Dec 1968 UTC launched from the Air Force Western Test Range (AFWTR). Debris objects in space refer to the collection of defunct objects orbiting the Earth. Examples of debris include non-operational satellites, rocket bodies, and fragments generated from explosions, collisions, or faulty payload assembly.

Loading next visibility...
Identifier
42083, 1968-114K
Orbit
SSO
Country
Flag of USUS
Related business
Manufacturer
Aerojet
Mission
Spacecraft
Bus & Motor
Unknown
Mass
Unknown
Launch date (UTC)
1968-12-15 (57 years ago)
Launch vehicle
Unknown
Launch site
Air Force Western Test Range (AFWTR)
Object type
Payload
Rocket body
Debris
Shape & HBR
Unknown
Radar Cross Section
Small (<0.1 m²)

Expand to show TLE details & history
Last TLE update: 3 weeks ago

TLE from 3 weeks ago
0 DELTA 1 DEB
1 42083U 68114K   25239.76201873 -.00000137  00000-0 -22337-3 0  9995
2 42083 101.8851 244.3419 0282199   3.5622 178.3978 13.02120723  9978
Epoch: 2025-08-27T18:17Z
TLE epoch observation values (Epoch: 2025-08-27T18:17:18.418Z)
Latitude
-2.12095°
Longitude
173.33602°
Altitude
1,472.063 km
Speed
7.026 km/s
True Right ascension
04h 15m 35s
True Declination
-2° 06' 34"
Sunlit
Object was in daylight at epoch
Visualization orbit readout
Latitude
Unknown
Longitude
Unknown
Altitude
Unknown
Speed
Unknown
Apparent Right ascension
Unknown
Apparent Declination
Unknown
Sunlit
N/A
Visualization observer readout
Local Sidereal Time
19:55:38
Azimuth
Unknown
Elevation
Unknown
Doppler factor
Unknown
Orbital elements
Apogee altitude
1,466.578 km
Perigee altitude
1,035.975 km
Semi-major axis
7,629.413 km
Eccentricity
0.02822
Inclination
101.8851°
RAAN
244.3419°
Arg. of periapsis
3.5622°
True anomaly
178.48513°
Mean anomaly
178.3978°
Eccentric anomaly
178.44177°
Mean motion
3.25692 °/min
Orbital period
110.53 mins
BSTAR
-0.00022337
Loading maneuver chart data...
Computing Atmospheric mass density...
Loading historical data...
Loading historical data...
Loading historical data...
Loading historical data...
Loading historical data...
Loading historical data...
Loading historical data...

Documentation

Showing up to 5 results
|